Regional Weather Roundup
Issued by NWS Jackson, KY

Home | Current Version | Previous Version | Graphics & Text | Print | Product List | Glossary On
Versions: 1 2 3 4 5 6 7 8 9 10 11 12 13 14 15 16 17 18 19 20 21 22 23 24 25 26 27 28
000
ASUS43 KJKL 260510
RWRJKL

EAST KENTUCKY HOURLY WEATHER ROUNDUP
NATIONAL WEATHER SERVICE JACKSON KY
100 AM EDT FRI MAY 26 2017

NOTE: "FAIR" INDICATES FEW OR NO CLOUDS BELOW 12,000 FEET WITH
NO SIGNIFICANT WEATHER AND/OR OBSTRUCTIONS TO VISIBILITY.

* THESE REPORTS ARE NOT UNDER NWS QUALITY CONTROL AND MAY NOT
  REPORT WEATHER SUCH AS PRECIPITATION AND FOG.

KYZ079-080-083-085-087-088-110-112-115-119-120-260600
...EASTERN KENTUCKY...

CITY           SKY/WX    TMP DP  RH WIND       PRES   REMARKS
JACKSON        CLOUDY    58  57  97 VRB3      29.85R
LONDON         MOCLDY    59  54  83 SW7       29.87R
SOMERSET*      MOCLDY    55  55 100 CALM      29.88S
MONTICELLO*    CLEAR     51  50  96 VRB7      29.90R
WILLIAMSBURG*  PTCLDY    55  55 100 SW3       29.89R
MIDDLESBORO*   CLEAR     59  54  82 W3        29.88R
HARLAN APT*    PTCLDY    55  54  94 CALM      29.89R
PIKE CO APT*   CLOUDY    58  58 100 SW7       29.84R
BIG SANDY APT* CLOUDY    60  57  92 W7        29.83R
MOREHEAD APT*  CLOUDY    59  54  82 W6        29.83R
ASHLAND*       CLOUDY    63  57  82 W7        29.76R
$$

KYZ035-036-041-042-044-050-067-078-099-260600
...CENTRAL KENTUCKY...

CITY           SKY/WX    TMP DP  RH WIND       PRES   REMARKS
MT STERLING*   MOCLDY    59  54  82 W6        29.85R
FLEMING/MASON* MOCLDY    58  55  87 W9        29.83R
DANVILLE*      MOCLDY    59  54  82 W5        29.87R
LEXINGTON      CLEAR     57  53  86 SW6       29.84R
FRANKFORT      CLEAR     56  52  86 SW5       29.83R
LOUISVILLE     PTCLDY    60  57  89 CALM      29.83R
LEBANON*         N/A     59  55  88 S6        29.86R
GLASGOW*       CLEAR     58  52  82 CALM      29.88R
BOWLING GREEN  CLEAR     61  54  77 SW5       29.87R
$$

KYZ091>093-OHZ055-061-077-WVZ005-015-034-035-042-260600
...SOUTHERN OHIO/WEST VIRGINIA...

CITY           SKY/WX    TMP DP  RH WIND       PRES   REMARKS
COVINGTON      CLEAR     58  54  86 W8        29.80R
COLUMBUS       CLOUDY    60  58  92 W15G21    29.70R
DAYTON         MOCLDY    58  54  86 W15       29.76R
WILMINGTON     CLOUDY    59  56  89 W10       29.76R
HUNTINGTON     CLOUDY    61  56  83 W9        29.78R
CHARLESTON     CLOUDY    60  56  86 SW14      29.75S
PINEVILLE*     DRIZZLE   58  56  94 MISG      29.85R
BECKLEY        CLOUDY    55  52  89 W10G23    29.79R
BLUEFIELD      LGT RAIN  53  51  93 W13G25    29.82R
LOGAN CO APT*  CLOUDY    57  55  94 W13G23    29.80R
$$

VAZ002-007-008-TNZ017-027-036-066-071-260600
...SOUTHWEST VIRGINIA/EAST TENNESSEE...

CITY           SKY/WX    TMP DP  RH WIND       PRES   REMARKS
WISE*          MOCLDY    55  55 100 W7        29.88S
JONESVILLE*    MOCLDY    57  55  94 CALM      29.90R
ABINGDON*      CLOUDY    57  57 100 W7        29.87R
BRISTOL        CLOUDY    59  55  87 SW6       29.86R
MORRISTOWN*    CLOUDY    55  54  94 SW5       29.89R
SEVIERVILLE*   CLEAR     54  50  87 CALM      29.89S
KNOXVILLE      CLEAR     57  52  83 SW6       29.89R
OAK RIDGE      CLEAR     57  53  86 SW3       29.91R
CROSSVILLE     CLEAR     52  51  97 SW5       29.93R
NASHVILLE      CLEAR     57  53  86 S6        29.89R
$$

...KEY TO REMARKS...
VSB - VISIBILITY IN MILES
WCI - WIND CHILL INDEX
HX  - HEAT INDEX

$$




USA.gov is the U.S. government's official web portal to all federal, state and local government web resources and services.